AI5YA-13 Weather Reports


time (UTC)temp
C
wind
direction
speed
KPH
gust
KPH
rain 1hr
cm
rain 24hr
cm
rain mn
cm
humidity
%
barometer
mb
20260506035311 21 13 0.0 0.0 0.00 0.00 0.00 43 1009.8
20260506034809 21 13 0.0 0.0 0.00 0.00 0.00 43 1009.5
20260506034306 20 13 0.0 0.0 0.00 0.00 0.00 43 1009.5
20260506033802 20 13 0.0 0.0 0.00 0.00 0.00 44 1009.6
20260506033259 20 13 0.0 0.0 0.00 0.00 0.00 44 1009.6
20260506032756 21 13 0.0 0.0 0.00 0.00 0.00 43 1009.6
20260506032253 21 13 0.0 0.0 0.00 0.00 0.00 42 1009.7
20260506031750 21 13 0.0 0.0 0.00 0.00 0.00 41 1009.6
20260506031247 21 13 0.0 0.0 0.00 0.00 0.00 41 1009.5
20260506030745 21 338 0.0 0.0 0.00 0.00 0.00 40 1009.5
20260506030243 21 43 0.0 0.0 0.00 0.00 0.00 42 1009.7
20260506025739 21 44 0.0 0.0 0.00 0.00 0.00 43 1009.7
20260506025236 21 43 0.0 0.0 0.00 0.00 0.00 41 1009.6
20260506024733 21 42 0.0 0.0 0.00 0.00 0.00 41 1009.3
20260506024229 22 289 0.0 0.0 0.00 0.00 0.00 40 1009.1
20260506023726 22 332 0.0 0.0 0.00 0.00 0.00 39 1008.9
20260506023223 22 46 0.0 0.0 0.00 0.00 0.00 39 1008.5
20260506022719 22 43 0.0 0.0 0.00 0.00 0.00 39 1008.7
20260506022217 21 357 0.0 0.0 0.00 0.00 0.00 40 1008.9
20260506021715 22 5 0.0 0.0 0.00 0.00 0.00 40 1009.0
20260506021212 21 5 0.0 0.0 0.00 0.00 0.00 40 1008.8
20260506020708 22 5 0.0 0.0 0.00 0.00 0.00 40 1009.0
20260506020206 22 4 0.0 0.0 0.00 0.00 0.00 39 1009.1
20260506015704 22 4 0.0 0.0 0.00 0.00 0.00 38 1009.2
20260506015201 22 5 0.0 0.0 0.00 0.00 0.00 39 1009.2
20260506014658 22 302 0.0 0.0 0.00 0.00 0.00 38 1009.0
20260506014154 23 282 0.0 0.0 0.00 0.00 0.00 37 1009.1
20260506013652 23 287 0.0 0.0 0.00 0.00 0.00 37 1009.1
20260506013149 23 309 0.0 0.0 0.00 0.00 0.00 37 1009.0
20260506012645 23 2 0.0 0.0 0.00 0.00 0.00 36 1009.1
20260506012142 23 273 0.0 0.0 0.00 0.00 0.00 35 1009.1
20260506011639 23 358 0.0 0.0 0.00 0.00 0.00 35 1009.0
20260506011135 24 303 0.0 0.0 0.00 0.00 0.00 34 1009.1
20260506010635 25 340 0.0 0.0 0.00 0.00 0.00 33 1009.0
20260506010131 25 277 0.0 0.0 0.00 0.00 0.00 32 1009.0
20260506005628 25 300 0.0 0.0 0.00 0.00 0.00 32 1008.8
20260506005124 25 270 0.0 0.0 0.00 0.00 0.00 33 1008.9
20260506004621 25 236 0.0 0.0 0.00 0.00 0.00 33 1009.0
20260506004118 25 274 0.0 0.0 0.00 0.00 0.00 32 1008.9
20260506003615 25 262 0.0 0.0 0.00 0.00 0.00 32 1009.0
20260506003111 25 257 0.0 0.0 0.00 0.00 0.00 31 1009.0
20260506002607 26 275 0.0 0.0 0.00 0.00 0.00 32 1009.0
20260506002103 25 270 0.0 0.0 0.00 0.00 0.00 32 1009.0
20260506001559 25 289 0.0 0.0 0.00 0.00 0.00 33 1009.0
20260506001056 25 252 0.0 0.0 0.00 0.00 0.00 33 1009.3
20260506000554 25 274 0.0 0.0 0.00 0.00 0.00 33 1009.3
20260506000051 24 305 0.0 0.0 0.00 0.00 0.00 33 1009.6
20260505235549 24 261 0.0 0.0 0.00 0.00 0.00 33 1009.6
20260505235046 25 260 0.0 0.0 0.00 0.00 0.00 32 1009.5
20260505234543 25 274 0.0 0.0 0.00 0.00 0.00 32 1009.2
20260505234039 25 244 0.0 0.0 0.00 0.00 0.00 32 1009.3
20260505233537 25 290 0.0 0.0 0.00 0.00 0.00 31 1009.3
20260505233034 25 246 0.0 0.0 0.00 0.00 0.00 31 1009.2
20260505232532 25 330 0.0 0.0 0.00 0.00 0.00 31 1009.5
20260505232029 25 266 0.0 0.0 0.00 0.00 0.00 31 1009.8
20260505231526 25 280 0.0 0.0 0.00 0.00 0.00 30 1009.3
20260505231025 25 260 0.0 0.0 0.00 0.00 0.00 30 1009.1
20260505230522 25 268 0.0 0.0 0.00 0.00 0.00 30 1008.9
20260505230018 25 330 0.0 0.0 0.00 0.00 0.00 30 1009.1
20260505225515 25 277 0.0 0.0 0.00 0.00 0.00 29 1009.1
20260505225011 25 335 0.0 0.0 0.00 0.00 0.00 30 1009.1
20260505224508 25 265 0.0 0.0 0.00 0.00 0.00 30 1009.2
20260505224005 25 256 0.0 0.0 0.00 0.00 0.00 30 1009.1
20260505223502 25 280 0.0 0.0 0.00 0.00 0.00 31 1009.1
20260505222958 25 259 0.0 0.0 0.00 0.00 0.00 31 1009.3
20260505222455 25 243 0.0 0.0 0.00 0.00 0.00 31 1009.0
20260505221950 25 232 0.0 0.0 0.00 0.00 0.00 31 1009.1
20260505221448 25 267 0.0 0.0 0.00 0.00 0.00 31 1009.0
20260505220945 25 245 0.0 0.0 0.00 0.00 0.00 30 1009.1
20260505220442 25 243 0.0 0.0 0.00 0.00 0.00 29 1009.1
20260505215940 26 291 0.0 0.0 0.00 0.00 0.00 28 1009.1
20260505215438 26 280 0.0 0.0 0.00 0.00 0.00 28 1009.1
20260505214935 26 273 0.0 0.0 0.00 0.00 0.00 28 1009.2
20260505214433 26 271 0.0 0.0 0.00 0.00 0.00 28 1009.7
20260505213930 26 253 0.0 0.0 0.00 0.00 0.00 28 1009.6
20260505213428 26 258 0.0 0.0 0.00 0.00 0.00 27 1009.5
20260505212924 26 237 0.0 0.0 0.00 0.00 0.00 28 1009.3
20260505212421 26 254 0.0 0.0 0.00 0.00 0.00 28 1009.2
20260505211917 26 214 0.0 0.0 0.00 0.00 0.00 27 1009.2
20260505211415 26 260 0.0 0.0 0.00 0.00 0.00 27 1009.7
20260505210911 26 268 0.0 0.0 0.00 0.00 0.00 28 1009.7
20260505210408 26 276 0.0 0.0 0.00 0.00 0.00 28 1009.9
20260505205905 26 259 0.0 0.0 0.00 0.00 0.00 28 1009.8
20260505205403 26 284 0.0 0.0 0.00 0.00 0.00 28 1009.7
20260505204900 26 358 0.0 0.0 0.00 0.00 0.00 29 1009.7
20260505204357 26 330 0.0 0.0 0.00 0.00 0.00 28 1009.8
20260505203855 26 292 0.0 0.0 0.00 0.00 0.00 29 1009.6
20260505203351 26 257 0.0 0.0 0.00 0.00 0.00 29 1009.9
20260505202847 26 296 0.0 0.0 0.00 0.00 0.00 29 1009.9
20260505202344 26 269 0.0 0.0 0.00 0.00 0.00 29 1009.9
20260505201840 26 305 0.0 0.0 0.00 0.00 0.00 29 1009.9
20260505201338 25 300 0.0 0.0 0.00 0.00 0.00 29 1010.3
20260505200836 26 288 0.0 0.0 0.00 0.00 0.00 28 1010.0
20260505200332 26 303 0.0 0.0 0.00 0.00 0.00 28 1010.2
20260505195828 26 288 0.0 0.0 0.00 0.00 0.00 27 1009.8
20260505195325 26 332 0.0 0.0 0.00 0.00 0.00 27 1009.9
20260505194822 26 254 0.0 0.0 0.00 0.00 0.00 25 1010.1
20260505194320 26 237 0.0 0.0 0.00 0.00 0.00 26 1010.1
20260505193815 26 252 0.0 0.0 0.00 0.00 0.00 27 1010.1
20260505193313 26 324 0.0 0.0 0.00 0.00 0.00 26 1010.1
20260505192811 26 301 0.0 0.0 0.00 0.00 0.00 26 1010.2
20260505192310 26 249 0.0 0.0 0.00 0.00 0.00 26 1010.1
20260505191806 26 308 0.0 0.0 0.00 0.00 0.00 26 1010.1
20260505191304 26 265 0.0 0.0 0.00 0.00 0.00 27 1010.2
20260505190800 26 265 0.0 0.0 0.00 0.00 0.00 26 1010.2
20260505190256 26 275 0.0 0.0 0.00 0.00 0.00 26 1010.3
20260505185752 26 288 0.0 0.0 0.00 0.00 0.00 28 1010.6
20260505185249 26 312 0.0 0.0 0.00 0.00 0.00 28 1010.3
20260505184745 26 288 0.0 1.6 0.00 0.00 0.00 27 1010.7
20260505184242 26 309 0.0 0.0 0.00 0.00 0.00 27 1010.2
20260505183739 26 260 0.0 1.6 0.00 0.00 0.00 26 1010.2
20260505183236 26 288 0.0 0.0 0.00 0.00 0.00 26 1010.6
20260505182733 26 253 0.0 0.0 0.00 0.00 0.00 27 1010.4
20260505182229 26 298 0.0 0.0 0.00 0.00 0.00 27 1010.2
20260505181726 26 295 0.0 0.0 0.00 0.00 0.00 28 1010.3
20260505181224 26 317 0.0 0.0 0.00 0.00 0.00 27 1010.4
20260505180720 26 294 0.0 0.0 0.00 0.00 0.00 27 1010.6
20260505180217 26 289 0.0 0.0 0.00 0.00 0.00 27 1010.6
20260505175713 27 294 0.0 0.0 0.00 0.00 0.00 26 1010.8
20260505175209 27 328 0.0 0.0 0.00 0.00 0.00 27 1010.8
20260505174706 27 347 0.0 0.0 0.00 0.00 0.00 27 1010.4
20260505174203 26 261 0.0 0.0 0.00 0.00 0.00 27 1010.7
20260505173659 27 340 0.0 0.0 0.00 0.00 0.00 26 1010.7
20260505173156 26 258 0.0 0.0 0.00 0.00 0.00 27 1010.7
20260505172653 26 297 0.0 0.0 0.00 0.00 0.00 27 1010.8
20260505172150 26 277 0.0 0.0 0.00 0.00 0.00 26 1010.6
20260505171649 26 292 0.0 0.0 0.00 0.00 0.00 27 1010.4
20260505171147 26 281 0.0 0.0 0.00 0.00 0.00 27 1010.4
20260505170644 26 301 0.0 0.0 0.00 0.00 0.00 27 1010.8
20260505170141 26 329 0.0 0.0 0.00 0.00 0.00 27 1010.7
20260505165641 26 330 0.0 0.0 0.00 0.00 0.00 27 1010.7
20260505165137 26 309 0.0 0.0 0.00 0.00 0.00 27 1010.7
20260505164632 26 302 0.0 0.0 0.00 0.00 0.00 27 1010.7
20260505164130 26 245 0.0 0.0 0.00 0.00 0.00 26 1010.7
20260505163628 26 275 0.0 0.0 0.00 0.00 0.00 27 1010.7
20260505163126 26 313 0.0 0.0 0.00 0.00 0.00 26 1010.7
20260505162623 26 261 0.0 0.0 0.00 0.00 0.00 26 1010.8
20260505162121 26 304 0.0 0.0 0.00 0.00 0.00 26 1010.4
20260505161618 25 275 0.0 0.0 0.00 0.00 0.00 26 1010.3
20260505161115 25 299 0.0 0.0 0.00 0.00 0.00 27 1010.6
20260505160613 25 1 0.0 0.0 0.00 0.00 0.00 27 1010.4
20260505160110 25 240 0.0 0.0 0.00 0.00 0.00 27 1010.4
20260505153049 25 317 0.0 0.0 0.00 0.00 0.00 27 1010.0
20260505152546 25 305 0.0 0.0 0.00 0.00 0.00 27 1010.2
20260505152042 25 9 0.0 0.0 0.00 0.00 0.00 27 1010.0
20260505151537 25 346 0.0 0.0 0.00 0.00 0.00 27 1010.0
20260505151035 26 327 0.0 0.0 0.00 0.00 0.00 26 1010.1
20260505150531 26 284 0.0 0.0 0.00 0.00 0.00 28 1010.3
20260505140456 22 288 0.0 0.0 0.00 0.00 0.00 36 1009.8
20260505124909 18 219 0.0 0.0 0.00 0.00 0.00 49 1009.0
20260505124406 18 224 0.0 0.0 0.00 0.00 0.00 48 1008.9
20260505123902 18 233 0.0 0.0 0.00 0.00 0.00 46 1008.6
20260505123359 18 232 0.0 0.0 0.00 0.00 0.00 47 1008.7
20260505122855 18 231 0.0 0.0 0.00 0.00 0.00 47 1008.7
20260505122352 18 231 0.0 0.0 0.00 0.00 0.00 47 1008.5
20260505121849 18 231 0.0 0.0 0.00 0.00 0.00 48 1008.6
20260505121346 18 230 0.0 0.0 0.00 0.00 0.00 50 1008.5
20260505120842 17 222 0.0 0.0 0.00 0.00 0.00 54 1008.5
20260505120338 17 224 0.0 0.0 0.00 0.00 0.00 56 1008.4
20260505115837 16 231 0.0 0.0 0.00 0.00 0.00 60 1008.5
20260505115334 16 224 0.0 0.0 0.00 0.00 0.00 66 1008.4
20260505114832 16 230 0.0 0.0 0.00 0.00 0.00 66 1008.4
20260505114328 16 222 0.0 0.0 0.00 0.00 0.00 64 1008.0
20260505113825 15 225 0.0 0.0 0.00 0.00 0.00 64 1008.3
20260505113321 15 223 0.0 0.0 0.00 0.00 0.00 65 1008.1
20260505112817 15 224 0.0 0.0 0.00 0.00 0.00 65 1008.1
20260505112315 16 225 0.0 0.0 0.00 0.00 0.00 63 1007.9
20260505111810 16 226 0.0 0.0 0.00 0.00 0.00 61 1007.9
20260505111306 16 230 0.0 0.0 0.00 0.00 0.00 59 1008.1
20260505110756 16 230 0.0 0.0 0.00 0.00 0.00 61 1008.1
20260505110255 16 230 0.0 0.0 0.00 0.00 0.00 62 1008.0
20260505101728 18 225 0.0 0.0 0.00 0.00 0.00 54 1008.1
20260505101224 18 248 0.0 0.0 0.00 0.00 0.00 55 1008.1
20260505100721 18 263 0.0 0.0 0.00 0.00 0.00 57 1007.8
20260505100218 18 278 0.0 0.0 0.00 0.00 0.00 57 1007.8
20260505095713 18 232 0.0 0.0 0.00 0.00 0.00 56 1007.7
20260505095212 18 230 0.0 0.0 0.00 0.00 0.00 53 1007.7
20260505094707 17 215 0.0 0.0 0.00 0.00 0.00 52 1008.0
20260505094203 17 245 0.0 0.0 0.00 0.00 0.00 53 1008.0
20260505093700 17 215 0.0 0.0 0.00 0.00 0.00 52 1007.7
20260505093157 17 236 0.0 0.0 0.00 0.00 0.00 50 1007.5
20260505092654 17 271 0.0 0.0 0.00 0.00 0.00 50 1007.9
20260505092153 17 273 0.0 0.0 0.00 0.00 0.00 52 1007.9
20260505091649 17 248 0.0 0.0 0.00 0.00 0.00 52 1007.7
20260505091147 17 163 0.0 0.0 0.00 0.00 0.00 53 1007.6
20260505090644 17 223 0.0 0.0 0.00 0.00 0.00 53 1007.7
20260505090143 17 139 0.0 0.0 0.00 0.00 0.00 53 1007.8
20260505085640 17 239 0.0 0.0 0.00 0.00 0.00 51 1007.9
20260505085138 17 259 0.0 0.0 0.00 0.00 0.00 50 1007.8
20260505084635 18 220 0.0 0.0 0.00 0.00 0.00 49 1008.0
20260505084134 18 189 0.0 0.0 0.00 0.00 0.00 48 1008.0
20260505083631 18 270 0.0 0.0 0.00 0.00 0.00 48 1008.0
20260505083127 18 270 0.0 0.0 0.00 0.00 0.00 47 1008.0
20260505082623 18 269 0.0 0.0 0.00 0.00 0.00 47 1007.9
20260505082120 18 233 0.0 0.0 0.00 0.00 0.00 46 1008.0
20260505081616 18 213 0.0 0.0 0.00 0.00 0.00 46 1007.9
20260505081114 17 229 0.0 0.0 0.00 0.00 0.00 48 1008.1
20260505080610 17 233 0.0 0.0 0.00 0.00 0.00 49 1008.0
20260505080107 17 224 0.0 0.0 0.00 0.00 0.00 49 1008.0
20260505075603 18 221 0.0 0.0 0.00 0.00 0.00 47 1008.1
20260505075059 18 226 0.0 0.0 0.00 0.00 0.00 44 1008.0
20260505074556 18 227 0.0 0.0 0.00 0.00 0.00 43 1008.1
20260505074054 18 211 0.0 0.0 0.00 0.00 0.00 42 1008.0
20260505073551 18 176 0.0 0.0 0.00 0.00 0.00 43 1008.0
20260505073049 18 191 0.0 0.0 0.00 0.00 0.00 44 1008.3
20260505072544 18 220 0.0 0.0 0.00 0.00 0.00 43 1008.0
20260505072041 18 212 0.0 0.0 0.00 0.00 0.00 44 1008.1
20260505071536 18 229 0.0 0.0 0.00 0.00 0.00 44 1007.9
20260505071035 18 223 0.0 0.0 0.00 0.00 0.00 44 1008.3
20260505070532 18 221 0.0 0.0 0.00 0.00 0.00 43 1008.3
20260505070028 19 209 0.0 0.0 0.00 0.00 0.00 42 1008.1
20260505065524 19 187 0.0 0.0 0.00 0.00 0.00 41 1008.0
20260505065020 20 274 0.0 0.0 0.00 0.00 0.00 41 1008.3
20260505064517 20 277 0.0 0.0 0.00 0.00 0.00 40 1008.5
20260505064016 20 221 0.0 0.0 0.00 0.00 0.00 39 1008.4
20260505063513 20 246 0.0 0.0 0.00 0.00 0.00 38 1008.3
20260505063008 21 256 0.0 0.0 0.00 0.00 0.00 37 1008.3
20260505062505 21 257 0.0 0.0 0.00 0.00 0.00 36 1008.3
20260505062003 21 262 0.0 0.0 0.00 0.00 0.00 36 1008.5
20260505061500 21 318 0.0 0.0 0.00 0.00 0.00 35 1008.4
20260505060957 21 297 0.0 0.0 0.00 0.00 0.00 35 1008.3
20260505060455 21 232 0.0 0.0 0.00 0.00 0.00 34 1008.5
20260505055951 21 233 0.0 0.0 0.00 0.00 0.00 34 1008.5
20260505055447 22 255 0.0 0.0 0.00 0.00 0.00 34 1008.5
20260505054944 22 279 0.0 0.0 0.00 0.00 0.00 33 1008.7
20260505054441 21 256 0.0 0.0 0.00 0.00 0.00 34 1008.7
20260505053939 21 281 0.0 0.0 0.00 0.00 0.00 34 1008.8
20260505053436 21 237 0.0 0.0 0.00 0.00 0.00 35 1008.9
20260505052932 21 232 0.0 0.0 0.00 0.00 0.00 36 1008.8
20260505052429 21 325 0.0 0.0 0.00 0.00 0.00 36 1008.9
20260505051927 21 250 0.0 0.0 0.00 0.00 0.00 36 1009.1
20260505051424 21 266 0.0 0.0 0.00 0.00 0.00 35 1008.9
20260505050922 21 291 0.0 0.0 0.00 0.00 0.00 35 1009.2
20260505050420 21 278 0.0 0.0 0.00 0.00 0.00 35 1009.0
20260505041347 22 338 0.0 0.0 0.00 0.00 0.00 34 1008.9
20260505040844 22 286 0.0 0.0 0.00 0.00 0.00 33 1009.0
20260505040342 22 343 0.0 0.0 0.00 0.00 0.00 32 1008.9
20260505035838 22 343 0.0 0.0 0.00 0.00 0.00 32 1008.9